Flag for South Korea Weather past 2 weeks in Daegu, South Korea

Now
86 °F

Passing clouds.


Feels Like: 93 °F
Forecast: 80 / 93 °F
Wind: 7 mph from South

Location: Taegu Ab

Current Time: Jul 25, 2014 at 11:39:09 PM

Latest Report: Jul 25, 2014 at 11:00 PM


Visibility: N/A

Pressure: 29.71 "Hg

Humidity: 66%

Dew point: 73 °F

Location of DaeguLocation

Historic Weather in Daegu — Graph

°F

Daegu temperature yesterday

Maximum temperature yesterday: 95 °F (at 3:00 PM)
Minimum temperature yesterday: 75 °F (at 5:00 AM)
Average temperature yesterday: 84 °F

Past Weeks' High & Low Weather Summary

 TemperatureHumidityPressure
High95 °F (Jul 24, 3:00 PM)100% (Jul 25, 4:00 AM)29.92 "Hg (Jul 25, 4:00 AM)
Low70 °F (Jul 12, 5:00 AM)32% (Jul 11, 4:00 PM)29.42 "Hg (Jul 10, 10:00 PM)
Average81 °F70%29.73 "Hg
* Reported Jul 10 10:00 PM — Jul 25 10:00 PM, Daegu, Weather by CustomWeather, © 2014

Note: Actual official high and low records may vary slightly from our data, if they occured in-between our weather recording intervals... More about our weather records

Advertising

Daegu weather history for previous 24 hours

 ConditionsComfort  
Time TempWeatherWind HumidityBarometerVisibility
10:00 PM
Jul 25
86 °FPassing clouds.6 mph66%29.71 "HgN/A
9:00 PM86 °FPassing clouds.9 mph66%29.71 "HgN/A
8:00 PM86 °FPassing clouds.9 mph66%29.71 "HgN/A
7:00 PM88 °FPartly sunny.9 mph62%29.71 "HgN/A
6:00 PM88 °FPartly sunny.12 mph62%29.71 "HgN/A
5:00 PM90 °FPartly sunny.10 mph59%29.71 "HgN/A
4:00 PM90 °FPartly sunny.12 mph59%29.74 "HgN/A
3:00 PM91 °FPartly sunny.9 mph56%29.71 "HgN/A
2:00 PM93 °FPartly sunny.9 mph53%29.71 "HgN/A
1:00 PM93 °FPartly sunny.9 mph53%29.74 "HgN/A
12:00 PM93 °FPartly sunny.8 mph53%29.74 "HgN/A
11:00 AM91 °FPartly sunny.6 mph59%29.74 "HgN/A
10:00 AM90 °FPartly sunny.2 mph63%29.74 "HgN/A
9:00 AM88 °FPartly sunny.1 mph66%29.74 "HgN/A
8:00 AM86 °FPartly sunny.1 mph70%29.74 "HgN/A
7:00 AM82 °FPartly sunny.1 mph84%29.74 "HgN/A
6:00 AM81 °FPartly sunny.1 mph84%29.74 "HgN/A
5:00 AM81 °FPassing clouds.3 mph84%29.74 "HgN/A
4:00 AM75 °FPassing clouds.1 mph100%29.71 "HgN/A
3:00 AM82 °FPassing clouds.2 mph84%29.73 "HgN/A
2:00 AM82 °FPassing clouds.1 mph79%29.73 "HgN/A
1:00 AM82 °FPassing clouds.1 mph84%29.74 "HgN/A
12:00 AM82 °FPassing clouds.3 mph84%29.75 "HgN/A
11:00 PM
Jul 24
82 °FPartly cloudy.2 mph84%29.75 "HgN/A
Weather by CustomWeather, © 2014

See weather overviewHow to use our weather pages